WMT6JM EDDS-LATI

Flight info

Callsign WMT6JM
Flight time 1h 42m
Altitude 37000
Route ABTAL L173 RIXED Y161 RIDAR Z98 MIQ L605 ESEGA DCT RADLY DCT PODET DCT PETAK
Aircraft A320/M-SDE1E2E3FGIJ1J4RWXY/LB1

Departure

Time 2026-05-05 11:30
Airport Stuttgart Airport (EDDS)

Arrival

Time 2026-05-05 13:12
Airport Tirana International Airport Mother Teresa (LATI)
Time Latitude Longitude Altitude Speed Heading
2026-05-05 10:56 48.68930 9.19652 1291 ft 0 kts 343°
2026-05-05 11:21 48.68922 9.19656 1285 ft 4 kts 345°
2026-05-05 11:22 48.68895 9.19664 1289 ft 4 kts 356°
2026-05-05 11:22 48.68869 9.19662 1287 ft 4 kts 24°
2026-05-05 11:22 48.68855 9.19643 1289 ft 1 kts 73°
2026-05-05 11:22 48.68855 9.19642 1289 ft 0 kts 73°
2026-05-05 11:26 48.68856 9.19651 1285 ft 4 kts 73°
2026-05-05 11:26 48.68873 9.19742 1285 ft 11 kts 74°
2026-05-05 11:27 48.68878 9.19862 1285 ft 12 kts 127°
2026-05-05 11:27 48.68803 9.19929 1288 ft 13 kts 146°
2026-05-05 11:27 48.68725 9.19967 1288 ft 7 kts 164°
2026-05-05 11:27 48.68686 9.19985 1287 ft 0 kts 164°
2026-05-05 11:28 48.68680 9.19987 1286 ft 2 kts 164°
2026-05-05 11:28 48.68634 9.20008 1287 ft 11 kts 164°
2026-05-05 11:28 48.68585 9.20083 1285 ft 12 kts 75°
2026-05-05 11:28 48.68612 9.20217 1285 ft 18 kts 74°
2026-05-05 11:29 48.68702 9.20690 1285 ft 79 kts 74°
2026-05-05 11:29 48.68906 9.21765 1288 ft 131 kts 74°
2026-05-05 11:29 48.69200 9.23309 1291 ft 172 kts 74°
2026-05-05 11:29 48.69522 9.25021 1856 ft 167 kts 74°
2026-05-05 11:30 48.69842 9.26717 2435 ft 168 kts 73°
2026-05-05 11:30 48.70178 9.28473 2732 ft 184 kts 73°
2026-05-05 11:30 48.70550 9.30420 3021 ft 201 kts 73°
2026-05-05 11:30 48.70962 9.32553 3266 ft 223 kts 74°
2026-05-05 11:31 48.71420 9.34924 3569 ft 247 kts 74°
2026-05-05 11:31 48.71911 9.37533 4031 ft 265 kts 75°
2026-05-05 11:31 48.72417 9.40249 4821 ft 271 kts 75°
2026-05-05 11:31 48.72932 9.43011 5662 ft 274 kts 75°
2026-05-05 11:32 48.73457 9.45802 6490 ft 277 kts 75°
2026-05-05 11:32 48.73990 9.48624 7316 ft 280 kts 76°
2026-05-05 11:32 48.74528 9.51476 8108 ft 284 kts 76°
2026-05-05 11:32 48.75070 9.54378 8877 ft 288 kts 76°
2026-05-05 11:33 48.75618 9.57319 9649 ft 292 kts 76°
2026-05-05 11:33 48.76176 9.60320 10191 ft 304 kts 76°
2026-05-05 11:33 48.76769 9.63521 10384 ft 327 kts 76°
2026-05-05 11:33 48.77398 9.66919 10748 ft 340 kts 76°
2026-05-05 11:34 48.78048 9.70403 11331 ft 346 kts 76°
2026-05-05 11:34 48.78707 9.73928 11981 ft 349 kts 76°
2026-05-05 11:34 48.79370 9.77492 12627 ft 353 kts 77°
2026-05-05 11:34 48.80038 9.81094 13287 ft 357 kts 77°
2026-05-05 11:35 48.80713 9.84739 13902 ft 360 kts 77°
2026-05-05 11:35 48.81394 9.88413 14489 ft 363 kts 77°
2026-05-05 11:35 48.82077 9.92118 15060 ft 366 kts 77°
2026-05-05 11:35 48.82762 9.95856 15627 ft 369 kts 77°
2026-05-05 11:36 48.83439 9.99576 16180 ft 372 kts 77°
2026-05-05 11:36 48.84129 10.03374 16758 ft 375 kts 77°
2026-05-05 11:36 48.84821 10.07206 17316 ft 378 kts 79°
2026-05-05 11:36 48.85216 10.11140 17856 ft 377 kts 90°
2026-05-05 11:37 48.85126 10.15112 18385 ft 377 kts 100°
2026-05-05 11:37 48.84802 10.19070 18900 ft 379 kts 100°
2026-05-05 11:37 48.84477 10.23060 19433 ft 382 kts 100°
2026-05-05 11:37 48.84148 10.27079 19960 ft 385 kts 100°
2026-05-05 11:38 48.83817 10.31124 20480 ft 388 kts 100°
2026-05-05 11:38 48.83481 10.35200 20990 ft 390 kts 102°
2026-05-05 11:38 48.82856 10.39190 21480 ft 389 kts 112°
2026-05-05 11:38 48.81744 10.42914 21960 ft 387 kts 123°
2026-05-05 11:39 48.80191 10.46242 22431 ft 386 kts 134°
2026-05-05 11:39 48.78354 10.49220 22907 ft 388 kts 136°
2026-05-05 11:39 48.76489 10.52194 23381 ft 391 kts 136°
2026-05-05 11:39 48.74610 10.55191 23793 ft 393 kts 136°
2026-05-05 11:40 48.72720 10.58208 24172 ft 396 kts 136°
2026-05-05 11:40 48.70823 10.61235 24571 ft 398 kts 136°
2026-05-05 11:40 48.68909 10.64285 24962 ft 400 kts 136°
2026-05-05 11:40 48.66990 10.67344 25339 ft 402 kts 136°
2026-05-05 11:41 48.65062 10.70413 25720 ft 404 kts 137°
2026-05-05 11:41 48.63121 10.73497 26092 ft 406 kts 137°
2026-05-05 11:41 48.61294 10.76778 26448 ft 411 kts 128°
2026-05-05 11:41 48.59877 10.80570 26790 ft 419 kts 117°
2026-05-05 11:42 48.58959 10.84784 27121 ft 427 kts 106°
2026-05-05 11:42 48.58589 10.89272 27433 ft 435 kts 96°
2026-05-05 11:42 48.58468 10.93852 27739 ft 438 kts 96°
2026-05-05 11:42 48.58345 10.98469 28043 ft 441 kts 96°
2026-05-05 11:43 48.58221 11.03110 28362 ft 444 kts 96°
2026-05-05 11:43 48.58092 11.07775 28682 ft 446 kts 96°
2026-05-05 11:43 48.57958 11.12463 28999 ft 448 kts 97°
2026-05-05 11:43 48.57831 11.17180 29308 ft 451 kts 96°
2026-05-05 11:44 48.57735 11.21926 29624 ft 454 kts 96°
2026-05-05 11:44 48.57655 11.26697 29945 ft 456 kts 96°
2026-05-05 11:44 48.57582 11.31413 30325 ft 455 kts 96°
2026-05-05 11:44 48.57506 11.36183 30664 ft 455 kts 95°
2026-05-05 11:45 48.57422 11.40962 31024 ft 455 kts 96°
2026-05-05 11:45 48.57331 11.45738 31396 ft 455 kts 96°
2026-05-05 11:45 48.57232 11.50511 31775 ft 455 kts 96°
2026-05-05 11:45 48.57127 11.55278 32169 ft 454 kts 96°
2026-05-05 11:46 48.56918 11.60013 32558 ft 450 kts 102°
2026-05-05 11:46 48.56320 11.64622 32932 ft 446 kts 107°
2026-05-05 11:46 48.55646 11.69194 33333 ft 446 kts 107°
2026-05-05 11:46 48.54978 11.73758 33717 ft 445 kts 107°
2026-05-05 11:47 48.54312 11.78324 34028 ft 445 kts 106°
2026-05-05 11:47 48.53647 11.82876 34340 ft 444 kts 106°
2026-05-05 11:47 48.52979 11.87424 34627 ft 444 kts 106°
2026-05-05 11:47 48.52308 11.91971 34903 ft 444 kts 106°
2026-05-05 11:48 48.50960 12.01059 35430 ft 444 kts 106°
2026-05-05 11:48 48.50283 12.05604 35681 ft 444 kts 106°
2026-05-05 11:48 48.49606 12.10152 35934 ft 445 kts 106°
2026-05-05 11:49 48.48925 12.14696 36180 ft 445 kts 106°
2026-05-05 11:49 48.48240 12.19242 36390 ft 445 kts 106°
2026-05-05 11:49 48.47556 12.23792 36618 ft 445 kts 105°
2026-05-05 11:49 48.46870 12.28343 36778 ft 446 kts 105°
2026-05-05 11:50 48.45479 12.37526 36802 ft 452 kts 106°
2026-05-05 11:50 48.44072 12.46757 36803 ft 452 kts 106°
2026-05-05 11:51 48.42654 12.55988 36803 ft 453 kts 106°
2026-05-05 11:51 48.41226 12.65212 36802 ft 453 kts 106°
2026-05-05 11:52 48.39778 12.74430 36805 ft 452 kts 109°
2026-05-05 11:52 48.37779 12.83361 36810 ft 450 kts 112°
2026-05-05 11:53 48.35730 12.92198 36814 ft 451 kts 112°
2026-05-05 11:53 48.33651 13.01088 36797 ft 451 kts 112°
2026-05-05 11:54 48.31559 13.09971 36805 ft 451 kts 112°
2026-05-05 11:54 48.28737 13.18260 36811 ft 443 kts 130°
2026-05-05 11:55 48.24466 13.24777 36811 ft 437 kts 143°
2026-05-05 11:55 48.19836 13.30681 36819 ft 437 kts 143°
2026-05-05 11:56 48.15200 13.36592 36809 ft 438 kts 143°
2026-05-05 11:56 48.10553 13.42506 36807 ft 439 kts 143°
2026-05-05 11:57 48.05893 13.48414 36814 ft 439 kts 143°
2026-05-05 11:57 48.01225 13.54318 36817 ft 440 kts 143°
2026-05-05 11:58 47.96555 13.60219 36822 ft 440 kts 143°
2026-05-05 11:58 47.91879 13.66107 36825 ft 440 kts 143°
2026-05-05 11:59 47.87193 13.71981 36813 ft 440 kts 143°
2026-05-05 11:59 47.82504 13.77852 36817 ft 441 kts 143°
2026-05-05 12:00 47.77813 13.83721 36822 ft 440 kts 143°
2026-05-05 12:00 47.73120 13.89569 36829 ft 440 kts 143°
2026-05-05 12:01 47.68423 13.95407 36839 ft 440 kts 143°
2026-05-05 12:01 47.63731 14.01232 36826 ft 440 kts 143°
2026-05-05 12:02 47.59033 14.07047 36844 ft 440 kts 143°
2026-05-05 12:02 47.54329 14.12861 36838 ft 440 kts 143°
2026-05-05 12:03 47.49622 14.18657 36865 ft 440 kts 143°
2026-05-05 12:03 47.44914 14.24428 36867 ft 440 kts 143°
2026-05-05 12:04 47.40231 14.30171 36883 ft 440 kts 144°
2026-05-05 12:04 47.35514 14.35945 36893 ft 441 kts 144°
2026-05-05 12:05 47.30795 14.41701 36904 ft 440 kts 144°
2026-05-05 12:05 47.26067 14.47446 36923 ft 441 kts 144°
2026-05-05 12:06 47.21340 14.53185 36931 ft 440 kts 144°
2026-05-05 12:06 47.16616 14.58905 36925 ft 440 kts 144°
2026-05-05 12:07 47.11886 14.64625 36920 ft 441 kts 144°
2026-05-05 12:07 47.07150 14.70338 36932 ft 442 kts 144°
2026-05-05 12:08 47.02421 14.76014 36925 ft 442 kts 144°
2026-05-05 12:08 46.97662 14.81722 36942 ft 442 kts 144°
2026-05-05 12:09 46.92906 14.87432 36945 ft 442 kts 144°
2026-05-05 12:09 46.88136 14.93131 36937 ft 443 kts 144°
2026-05-05 12:10 46.83349 14.98815 36935 ft 444 kts 144°
2026-05-05 12:10 46.78549 15.04508 36928 ft 444 kts 144°
2026-05-05 12:11 46.74531 15.09272 36942 ft 445 kts 144°
2026-05-05 12:11 46.69728 15.14954 36962 ft 445 kts 144°
2026-05-05 12:12 46.64943 15.20561 36953 ft 444 kts 148°
2026-05-05 12:12 46.59737 15.25304 36975 ft 441 kts 152°
2026-05-05 12:13 46.54489 15.29946 36979 ft 441 kts 152°
2026-05-05 12:13 46.49241 15.34572 36986 ft 442 kts 153°
2026-05-05 12:14 46.43985 15.39199 36997 ft 442 kts 153°
2026-05-05 12:14 46.38728 15.43823 36987 ft 442 kts 152°
2026-05-05 12:15 46.33463 15.48443 36998 ft 443 kts 152°
2026-05-05 12:15 46.28193 15.53047 37006 ft 443 kts 152°
2026-05-05 12:16 46.22920 15.57639 37023 ft 443 kts 152°
2026-05-05 12:16 46.17642 15.62227 37023 ft 443 kts 152°
2026-05-05 12:17 46.12400 15.66899 37026 ft 443 kts 151°
2026-05-05 12:17 46.07217 15.71694 37026 ft 443 kts 150°
2026-05-05 12:18 46.02064 15.76456 37037 ft 443 kts 150°
2026-05-05 12:18 45.96860 15.81202 37031 ft 443 kts 151°
2026-05-05 12:19 45.91645 15.85923 37037 ft 443 kts 151°
2026-05-05 12:19 45.86427 15.90635 37035 ft 443 kts 151°
2026-05-05 12:20 45.81210 15.95354 37032 ft 443 kts 151°
2026-05-05 12:20 45.75994 16.00060 37029 ft 443 kts 151°
2026-05-05 12:21 45.70775 16.04755 37039 ft 443 kts 151°
2026-05-05 12:21 45.65554 16.09452 37029 ft 443 kts 151°
2026-05-05 12:22 45.60327 16.14135 37027 ft 444 kts 151°
2026-05-05 12:22 45.55086 16.18801 37025 ft 444 kts 151°
2026-05-05 12:23 45.49841 16.23475 37015 ft 445 kts 151°
2026-05-05 12:23 45.44596 16.28153 37025 ft 445 kts 151°
2026-05-05 12:24 45.39341 16.32816 37024 ft 445 kts 151°
2026-05-05 12:24 45.34089 16.37474 37019 ft 445 kts 151°
2026-05-05 12:25 45.28833 16.42117 37030 ft 445 kts 151°
2026-05-05 12:25 45.23576 16.46744 37013 ft 445 kts 151°
2026-05-05 12:26 45.18307 16.51371 37014 ft 446 kts 151°
2026-05-05 12:26 45.13034 16.56002 37001 ft 446 kts 151°
2026-05-05 12:27 45.07753 16.60637 37006 ft 447 kts 151°
2026-05-05 12:27 45.02499 16.65226 37008 ft 447 kts 151°
2026-05-05 12:28 44.97203 16.69846 37006 ft 448 kts 151°
2026-05-05 12:28 44.91889 16.74461 37003 ft 449 kts 152°
2026-05-05 12:29 44.86567 16.79079 37013 ft 449 kts 152°
2026-05-05 12:29 44.81246 16.83702 37020 ft 449 kts 152°
2026-05-05 12:30 44.75916 16.88310 37019 ft 449 kts 152°
2026-05-05 12:30 44.70584 16.92905 37021 ft 450 kts 152°
2026-05-05 12:31 44.65248 16.97495 37026 ft 450 kts 152°
2026-05-05 12:31 44.59912 17.02083 37031 ft 450 kts 152°
2026-05-05 12:32 44.54571 17.06666 37039 ft 450 kts 152°
2026-05-05 12:32 44.49232 17.11229 37033 ft 449 kts 152°
2026-05-05 12:33 44.43890 17.15787 37027 ft 450 kts 152°
2026-05-05 12:33 44.38534 17.20348 37026 ft 451 kts 152°
2026-05-05 12:34 44.33166 17.24904 37039 ft 452 kts 152°
2026-05-05 12:34 44.27792 17.29458 37050 ft 452 kts 152°
2026-05-05 12:35 44.22415 17.34014 37053 ft 452 kts 152°
2026-05-05 12:35 44.17031 17.38556 37047 ft 452 kts 152°
2026-05-05 12:36 44.11644 17.43097 37045 ft 453 kts 152°
2026-05-05 12:36 44.06240 17.47635 37052 ft 454 kts 152°
2026-05-05 12:37 44.00832 17.52166 37055 ft 454 kts 152°
2026-05-05 12:37 43.95424 17.56700 37059 ft 454 kts 152°
2026-05-05 12:38 43.90009 17.61212 37065 ft 454 kts 153°
2026-05-05 12:38 43.84586 17.65724 37063 ft 455 kts 152°
2026-05-05 12:39 43.79160 17.70244 37051 ft 456 kts 153°
2026-05-05 12:39 43.73729 17.74767 37069 ft 455 kts 153°
2026-05-05 12:40 43.68287 17.79262 37078 ft 456 kts 153°
2026-05-05 12:40 43.62876 17.83720 37078 ft 457 kts 153°
2026-05-05 12:41 43.57417 17.88222 37074 ft 457 kts 153°
2026-05-05 12:41 43.51954 17.92716 37085 ft 457 kts 153°
2026-05-05 12:42 43.46484 17.97204 37093 ft 458 kts 153°
2026-05-05 12:42 43.41014 18.01689 37097 ft 458 kts 153°
2026-05-05 12:43 43.35537 18.06166 37097 ft 458 kts 153°
2026-05-05 12:43 43.30057 18.10625 37101 ft 458 kts 153°
2026-05-05 12:44 43.24580 18.15086 37098 ft 458 kts 153°
2026-05-05 12:44 43.19105 18.19540 37100 ft 458 kts 153°
2026-05-05 12:45 43.13620 18.23988 37084 ft 458 kts 153°
2026-05-05 12:45 43.08133 18.28432 37086 ft 459 kts 153°
2026-05-05 12:46 43.02630 18.32866 37098 ft 459 kts 153°
2026-05-05 12:46 42.97122 18.37288 37099 ft 459 kts 153°
2026-05-05 12:47 42.91615 18.41715 37097 ft 459 kts 153°
2026-05-05 12:47 42.86102 18.46141 37094 ft 460 kts 154°
2026-05-05 12:48 42.80566 18.50566 36815 ft 462 kts 154°
2026-05-05 12:48 42.77786 18.52779 36557 ft 463 kts 154°
2026-05-05 12:48 42.75006 18.54991 36298 ft 463 kts 153°
2026-05-05 12:49 42.72229 18.57204 35961 ft 462 kts 153°
2026-05-05 12:49 42.69464 18.59414 35497 ft 459 kts 153°
2026-05-05 12:49 42.66714 18.61612 35018 ft 457 kts 154°
2026-05-05 12:49 42.63978 18.63796 34527 ft 456 kts 154°
2026-05-05 12:50 42.61242 18.65972 34022 ft 455 kts 154°
2026-05-05 12:50 42.58518 18.68134 33494 ft 452 kts 154°
2026-05-05 12:50 42.55807 18.70282 33009 ft 449 kts 154°
2026-05-05 12:50 42.53117 18.72414 32517 ft 447 kts 153°
2026-05-05 12:51 42.50440 18.74536 32026 ft 444 kts 153°
2026-05-05 12:51 42.47779 18.76641 31513 ft 442 kts 153°
2026-05-05 12:51 42.45131 18.78730 31027 ft 440 kts 153°
2026-05-05 12:51 42.42489 18.80805 30566 ft 438 kts 153°
2026-05-05 12:52 42.39855 18.82869 30098 ft 437 kts 153°
2026-05-05 12:52 42.37236 18.84923 29614 ft 433 kts 153°
2026-05-05 12:52 42.34643 18.86963 29171 ft 430 kts 152°
2026-05-05 12:52 42.32068 18.88991 28737 ft 427 kts 152°
2026-05-05 12:53 42.29512 18.91002 28311 ft 424 kts 152°
2026-05-05 12:53 42.26970 18.92998 27883 ft 421 kts 152°
2026-05-05 12:53 42.24443 18.94978 27452 ft 419 kts 152°
2026-05-05 12:53 42.21963 18.96918 27031 ft 417 kts 153°
2026-05-05 12:54 42.16945 19.00832 26164 ft 416 kts 153°
2026-05-05 12:54 42.14442 19.02787 25715 ft 416 kts 152°
2026-05-05 12:54 42.11940 19.04737 25259 ft 415 kts 152°
2026-05-05 12:55 42.09450 19.06677 24919 ft 411 kts 152°
2026-05-05 12:55 42.06967 19.08608 24483 ft 411 kts 152°
2026-05-05 12:55 42.04522 19.10508 23995 ft 403 kts 152°
2026-05-05 12:55 42.02106 19.12383 23350 ft 397 kts 151°
2026-05-05 12:56 41.99755 19.14205 22887 ft 383 kts 151°
2026-05-05 12:56 41.97486 19.15967 22447 ft 371 kts 151°
2026-05-05 12:56 41.95260 19.17694 22026 ft 369 kts 151°
2026-05-05 12:56 41.93035 19.19420 21588 ft 369 kts 151°
2026-05-05 12:57 41.91535 19.20581 21300 ft 368 kts 151°
2026-05-05 12:57 41.89320 19.22292 20865 ft 367 kts 151°
2026-05-05 12:57 41.87142 19.23972 20439 ft 365 kts 151°
2026-05-05 12:57 41.84943 19.25666 20007 ft 364 kts 151°
2026-05-05 12:58 41.82750 19.27355 19573 ft 363 kts 151°
2026-05-05 12:58 41.80567 19.29037 19141 ft 362 kts 151°
2026-05-05 12:58 41.78418 19.30780 18725 ft 361 kts 145°
2026-05-05 12:58 41.76539 19.32992 18301 ft 360 kts 133°
2026-05-05 12:59 41.74931 19.35547 17862 ft 357 kts 130°
2026-05-05 12:59 41.73345 19.38093 17448 ft 354 kts 130°
2026-05-05 12:59 41.71769 19.40610 17040 ft 351 kts 131°
2026-05-05 13:00 41.68645 19.45575 16223 ft 346 kts 131°
2026-05-05 13:00 41.67102 19.48030 15817 ft 344 kts 130°
2026-05-05 13:01 41.61530 19.53578 14614 ft 334 kts 167°
2026-05-05 13:01 41.59247 19.54051 14214 ft 331 kts 176°
2026-05-05 13:01 41.56956 19.54358 13797 ft 330 kts 175°
2026-05-05 13:01 41.54673 19.54666 13378 ft 329 kts 175°
2026-05-05 13:02 41.52408 19.54972 12976 ft 326 kts 175°
2026-05-05 13:02 41.50155 19.55279 12582 ft 324 kts 175°
2026-05-05 13:02 41.47918 19.55585 12184 ft 323 kts 175°
2026-05-05 13:02 41.45689 19.55892 11786 ft 321 kts 175°
2026-05-05 13:03 41.43471 19.56199 11390 ft 320 kts 175°
2026-05-05 13:03 41.41258 19.56502 10991 ft 319 kts 175°
2026-05-05 13:03 41.39053 19.56803 10578 ft 318 kts 175°
2026-05-05 13:03 41.36855 19.57101 10284 ft 313 kts 175°
2026-05-05 13:04 41.34723 19.57387 10158 ft 303 kts 175°
2026-05-05 13:04 41.32653 19.57667 9916 ft 295 kts 175°
2026-05-05 13:04 41.30625 19.57940 9286 ft 292 kts 175°
2026-05-05 13:04 41.28617 19.58209 8685 ft 288 kts 175°
2026-05-05 13:05 41.26643 19.58474 8208 ft 281 kts 175°
2026-05-05 13:05 41.24723 19.58733 7851 ft 276 kts 175°
2026-05-05 13:05 41.22809 19.58990 7494 ft 276 kts 175°
2026-05-05 13:05 41.20895 19.59248 7149 ft 276 kts 174°
2026-05-05 13:06 41.19076 19.60004 6799 ft 277 kts 146°
2026-05-05 13:06 41.17829 19.61914 6429 ft 279 kts 114°
2026-05-05 13:06 41.17547 19.64407 6021 ft 272 kts 86°
2026-05-05 13:06 41.17732 19.66863 5638 ft 264 kts 85°
2026-05-05 13:07 41.17924 19.69248 5285 ft 256 kts 85°
2026-05-05 13:07 41.18117 19.71562 4933 ft 249 kts 82°
2026-05-05 13:07 41.18800 19.73647 4584 ft 251 kts 46°
2026-05-05 13:07 41.20291 19.74762 4236 ft 248 kts
2026-05-05 13:08 41.21967 19.74733 3916 ft 236 kts 353°
2026-05-05 13:08 41.23555 19.74524 3590 ft 229 kts 352°
2026-05-05 13:08 41.25150 19.74290 3288 ft 226 kts 352°
2026-05-05 13:08 41.26680 19.74067 2998 ft 216 kts 352°
2026-05-05 13:09 41.28141 19.73860 2782 ft 207 kts 352°
2026-05-05 13:09 41.29547 19.73665 2484 ft 200 kts 352°
2026-05-05 13:09 41.30902 19.73479 2218 ft 192 kts 352°
2026-05-05 13:09 41.32187 19.73304 1980 ft 179 kts 352°
2026-05-05 13:10 41.33355 19.73149 1737 ft 165 kts 350°
2026-05-05 13:10 41.34460 19.73003 1463 ft 154 kts 351°
2026-05-05 13:10 41.35512 19.72862 1239 ft 150 kts 351°
2026-05-05 13:10 41.36549 19.72724 1003 ft 150 kts 349°
2026-05-05 13:11 41.37563 19.72589 782 ft 143 kts 350°
2026-05-05 13:11 41.38552 19.72453 546 ft 142 kts 350°
2026-05-05 13:11 41.39529 19.72322 317 ft 140 kts 350°
2026-05-05 13:11 41.40494 19.72190 140 ft 139 kts 350°
2026-05-05 13:12 41.41321 19.72077 121 ft 96 kts 354°
2026-05-05 13:12 41.41813 19.72013 119 ft 46 kts 354°
2026-05-05 13:12 41.42020 19.71985 116 ft 23 kts 354°
2026-05-05 13:12 41.42159 19.71966 116 ft 17 kts 354°
2026-05-05 13:13 41.42253 19.71954 115 ft 12 kts 354°
2026-05-05 13:13 41.42286 19.71852 116 ft 17 kts 260°
2026-05-05 13:13 41.42272 19.71692 115 ft 18 kts 265°
2026-05-05 13:13 41.42243 19.71550 116 ft 15 kts 217°
2026-05-05 13:14 41.42133 19.71553 118 ft 14 kts 177°
2026-05-05 13:14 41.42034 19.71568 118 ft 14 kts 170°
2026-05-05 13:14 41.41953 19.71580 117 ft 11 kts 174°
2026-05-05 13:14 41.41914 19.71542 118 ft 6 kts 263°
2026-05-05 13:15 41.41912 19.71524 119 ft 0 kts 263°
2026-05-05 13:15 41.41911 19.71518 119 ft 0 kts 263°